Flag for Argentina Weather past 2 weeks in Buenos Aires, Argentina

Now
75 °F

Sunny.


Feels Like: 76 °F
Forecast: 68 / 80 °F
Wind: 6 mph from Northeast

Location: Buenos Aires Airport

Current Time: Oct 25, 2014 at 1:12:51 PM

Latest Report: Oct 25, 2014 at 12:00 PM


Visibility: 10 mi

Pressure: 29.95 "Hg

Humidity: 78%

Dew point: 68 °F

Location of Buenos AiresLocation

Historic Weather in Buenos Aires — Graph

°F

Buenos Aires temperature yesterday

Maximum temperature yesterday: 81 °F (at 3:00 PM)
Minimum temperature yesterday: 70 °F (at 5:00 AM)
Average temperature yesterday: 75 °F

Past Weeks' High & Low Weather Summary

 TemperatureHumidityPressure
High84 °F (Oct 22, 4:00 PM)94% (Oct 24, 5:00 AM)30.21 "Hg (Oct 24, 5:00 AM)
Low54 °F (Oct 11, 4:00 AM)22% (Oct 19, 4:00 PM)29.62 "Hg (Oct 16, 7:00 AM)
Average70 °F65%29.98 "Hg
* Reported Oct 10 12:00 Noon — Oct 25 12:00 Noon, Buenos Aires, Weather by CustomWeather, © 2014

Note: Actual official high and low records may vary slightly from our data, if they occured in-between our weather recording intervals... More about our weather records

Advertising

Buenos Aires weather history for previous 24 hours

 ConditionsComfort  
Time TempWeatherWind HumidityBarometerVisibility
12:00 PM
Oct 25
75 °FSunny.6 mph78%29.95 "Hg10 mi
11:00 AM75 °FSunny.6 mph74%29.95 "Hg10 mi
10:00 AM73 °FSunny.6 mph78%29.98 "Hg10 mi
9:00 AM73 °FSunny.7 mph78%29.98 "Hg10 mi
8:00 AM73 °FPartly sunny.7 mph74%29.98 "HgN/A
7:00 AM73 °FSunny.9 mph69%29.98 "Hg10 mi
6:00 AM72 °FSunny.7 mph73%29.98 "Hg10 mi
5:00 AM72 °FSunny.8 mph69%29.95 "Hg10 mi
4:00 AM73 °FClear.8 mph65%29.92 "Hg10 mi
3:00 AM73 °FClear.7 mph69%29.92 "Hg10 mi
2:00 AM73 °FClear.5 mph78%29.92 "Hg10 mi
1:00 AM73 °FClear.7 mph69%29.95 "Hg10 mi
12:00 AM75 °FClear.7 mph74%29.95 "Hg10 mi
11:00 PM
Oct 24
73 °FClear.7 mph74%29.98 "Hg10 mi
10:00 PM73 °FClear.10 mph78%29.95 "Hg10 mi
9:00 PM73 °FClear.13 mph74%29.95 "Hg10 mi
8:00 PM73 °FClear.14 mph78%29.95 "Hg10 mi
7:00 PM75 °FClear.10 mph69%29.92 "Hg10 mi
6:00 PM75 °FSunny.13 mph78%29.92 "Hg10 mi
5:00 PM79 °FScattered clouds.12 mph74%29.92 "HgN/A
4:00 PM79 °FPartly sunny.9 mph70%29.95 "HgN/A
3:00 PM81 °FScattered clouds.8 mph54%29.95 "HgN/A
2:00 PM79 °FScattered clouds.8 mph61%29.98 "HgN/A
1:00 PM77 °FSunny.6 mph65%29.98 "Hg10 mi
Weather by CustomWeather, © 2014

See weather overviewHow to use our weather pages